Regional Weather Roundup
Issued by NWS

Home | Current Version | Previous Version | Graphics & Text | Print | Product List | Glossary On
Versions: 1 2 3 4 5 6 7 8 9 10 11 12 13 14 15 16 17 18 19 20 21 22 23 24 25 26 27
000
ASUS45 KBOU 220807
RWRCO

WEATHER ROUNDUP FOR COLORADO
NATIONAL WEATHER SERVICE DENVER/BOULDER CO
200 AM MDT MON MAY 22 2017

NOTE: "FAIR" INDICATES FEW OR NO CLOUDS BELOW 12000 FEET WITH NO
SIGNIFICANT WEATHER AND/OR OBSTRUCTIONS TO VISIBILITY.

COZ001>005-013-030-031-220900-
...NORTHWEST COLORADO...

CITY           SKY/WX    TMP DP  RH WIND       PRES   REMARKS
CRAIG          FAIR      36  32  85 CALM      30.28S
HAYDEN         FAIR      37  32  81 CALM      30.28S
MEEKER         FAIR      39  37  92 CALM      30.27S
RABBIT EARS PA FOG       30  30 100 NE7       30.35F VSB 1/2 WCI  23
STEAMBOAT SPGS FAIR      36  34  90 CALM      30.28F
WALDEN           N/A     34  32  93 CALM      30.33F
$$

COZ006>008-011-220900-
...WEST CENTRAL VALLEYS...

CITY           SKY/WX    TMP DP  RH WIND       PRES   REMARKS
GRAND JUNCTION MOCLDY    51  41  68 CALM      30.21S
MONTROSE       FAIR      49  42  77 SW6       30.26R
EAGLE          LGT RAIN  43  41  93 NE5       30.30S
RIFLE          CLOUDY    50  44  80 CALM      30.23S
DELTA          CLOUDY    54  42  65 NE7       30.23S
NUCLA          FAIR      43  37  81 E6        30.28S
$$

COZ017>023-064>068-220900-
...SOUTHWEST COLORADO...

CITY           SKY/WX    TMP DP  RH WIND       PRES   REMARKS
DURANGO        FAIR      46  32  58 NE3       30.20S
CORTEZ         FAIR      40  36  86 SE3       30.22R
PAGOSA SPRINGS FAIR      44  29  56 CALM      30.24F
TELLURIDE      MOCLDY    37  37  99 CALM      30.34S
WOLF CREEK PAS FAIR      30  25  80 SW9       30.42F WCI  22
$$

COZ009-010-012-014-032>034-037-058>063-220900-
...CENTRAL COLORADO...

CITY           SKY/WX    TMP DP  RH WIND       PRES   REMARKS
ASPEN          LGT RAIN  40  37  89 S3        30.28F
BUENA VISTA    LGT RAIN  42  37  83 SW9G16    30.28R
COPPER MTN     SNOW      32  28  86 MISG      30.38F VSB 1/4
BERTHOUD PASS  HAZE      23  12  63 NW6       30.38F VSB<1/4 WCI  16
COTTONWOOD PAS LGT SNOW  36  34  93 NW7G21    30.31F VSB 3/4
GUNNISON       MOCLDY    41  37  86 N3        30.28F
KREMMLING      CLOUDY    43  37  81 CALM      30.31S
LEADVILLE      FLURRIES  34  31  88 NW5       30.30F WCI  30
MONARCH PASS     N/A     28  27  93 W23       30.46F WCI  14
SALIDA         CLOUDY    47  35  62 W13       30.32F
SUNLIGHT       CLOUDY    30  30 100 N3        30.40S FOG
WILKERSON PASS LGT SNOW  30  30 100 E5        30.38F VSB 3/4 WCI  25
$$

COZ069>075-220900-
...SAN LUIS VALLEY/SANGRE DE CRISTO MOUNTAINS...

CITY           SKY/WX    TMP DP  RH WIND       PRES   REMARKS
ALAMOSA        MOCLDY    42  34  73 SW3       30.22F
DEL NORTE      FAIR      43  35  71 CALM      30.25F
LA VETA PASS   SNOW      34  32  93 N12G17    30.43F VSB<1/4 WCI  25
SAGUACHE       CLOUDY    43  34  70 NW13G20   30.26F
$$

COZ035-036-038>040-220900-
...NORTHERN COLORADO FRONT RANGE...

CITY           SKY/WX    TMP DP  RH WIND       PRES   REMARKS
DENVER INTL AP MOCLDY    46  42  86 SW8       30.23F
DMNS CITY PARK   N/A     45  44  95 SE6       30.23F
AURORA         PTCLDY    45  44  99 SW7       30.24F
FRONT RANGE AP FAIR      45  45 100 SW6       30.23F
ERIE MUNI ARPT FAIR      45  43  93 SW3       30.22F
BOULDER MUN AP FAIR      45  43  93 CALM      30.23S
CENTENNIAL     LGT RAIN  45  43  93 SW5       30.24F
BROOMFIELD     FAIR      45  43  93 CALM      30.24F
FORT COLLINS   FAIR      46  44  93 CALM      30.23F
LONGMONT       FAIR      45  43  91 W3        30.24F
$$

COZ041-046-047-076>085-087-088-220900-
...PIKES PEAK/PALMER DIVIDE AND SOUTHERN FOOTHILLS...

CITY           SKY/WX    TMP DP  RH WIND       PRES   REMARKS
COLO. SPRINGS  LGT RAIN  47  41  80 NW10      30.26S
A. F. ACADEMY  LGT RAIN  42  40  93 N6        30.26F
SCHRIEVER AFB  SHOWER    46  41  81 N8        30.25S
CHEYENNE MTN   LGT RAIN  42  38  84 NW14      30.21S
ELLICOTT       MIX PCPN   1  32 100 NE10      30.23F WCI -15
FALCON         LGT RAIN  42  39  89 N14G23    30.26S
FORT CARSON    LGT RAIN  46  42  87 N16       30.23S
LIMON          CLOUDY    46  44  93 NE8       30.23F
MONUMENT HILL  RAIN      37  37 100 N8        30.28F
CANON CITY     NOT AVBL
WALSENBURG     CLOUDY    48  45  87 N14G23    30.23F
TRINIDAD       MOCLDY    50  43  77 NW15      30.20R
$$

COZ042>045-048>051-090-091-220900-
...NORTHEAST COLORADO...

CITY           SKY/WX    TMP DP  RH WIND       PRES   REMARKS
GREELEY ARPT   FAIR      46  44  93 CALM      30.22F
AKRON          FAIR      48  45  89 W6        30.19F
BURLINGTON     CLOUDY    50  49  96 N7        30.19S
WRAY           LGT RAIN  52  52 100 W3        30.17F
YUMA           PTSUNNY   46  39  76 W7        30.18F
STERLING       FAIR      45  43  93 SW5       30.18F
HOLYOKE        NOT AVBL
FORT MORGAN    FAIR      45  43  94 W7        30.21F
$$

COZ086-089-092>099-220900-
...SOUTHEAST COLORADO...

CITY           SKY/WX    TMP DP  RH WIND       PRES   REMARKS
PUEBLO         CLOUDY    53  45  74 NE21      30.20R
LA JUNTA       MOCLDY    53  47  79 N17       30.15S
LAMAR          FAIR      52  49  89 NE3       30.10F
SPRINGFIELD      N/A     52  49  89 S23       30.10F
$$




USA.gov is the U.S. government's official web portal to all federal, state and local government web resources and services.